Location: Casteau
(50.5142°N, 4.0161°E)
Time: 08:54:16
(UTC+00:00)

Cosmos 1048 Rocket - Pass Details

Date: 18 September 2020
Orbit: 742 x 792 km, 74.0° (Epoch: 27 October)

Event Time Altitude Azimuth Distance (km) Brightness Sun altitude
Rises 19:22:55 0° 336° (NNW) 3,254 8.0 -15.2°
Reaches altitude 10° 19:25:17 10° 338° (NNW) 2,331 7.1 -15.5°
Maximum altitude 19:30:36 78° 65° (ENE) 804 4.0 -16.3°
Enters shadow 19:34:12 21° 150° (SSE) 1,688 5.3 -16.8°
